Regional Weather Roundup
Issued by NWS Kansas City/Pleasant Hill, MO

Home | Current Version | Previous Version | Graphics & Text | Print | Product List | Glossary Off
Versions: 1 2 3 4 5 6 7 8 9 10 11 12 13 14 15 16 17 18 19 20 21 22 23 24 25 26 27 28 29 30 31 32 33 34 35 36 37 38 39 40 41 42 43 44 45 46 47 48 49 50

000
ASUS43 KEAX 250310
RWREAX

WEATHER ROUNDUP FOR EASTERN KANSAS AND NORTHWEST MISSOURI
NATIONAL WEATHER SERVICE KANSAS CITY/PLEASANT HILL MO
1000 PM CDT FRI OCT 24 2014

KSZ040-057-103>105-MOZ028-029-037-043-250400-
...KANSAS CITY METROPOLITAN AREA...

CITY           SKY/WX    TMP DP  RH WIND       PRES   REMARKS
K.C. INTL      MOCLDY    64  61  90 SW8       29.98R
K.C. DOWNTOWN  CLEAR     70  61  73 SW6       29.98R
LEES SUMMIT    CLEAR     65  60  84 SW8       30.00R
OLATHE - IXD   CLEAR     62  60  93 S5        30.00R
OLATHE - OJC   CLEAR     64  61  90 S6        29.99R
LAWRENCE       CLEAR     61  58  90 CALM      29.98R

$$

MOZ001>008-011>017-020>025-030>033-038>040-044>046-053-054-250400-
...NORTHERN AND CENTRAL MISSOURI...

CITY           SKY/WX    TMP DP  RH WIND       PRES   REMARKS
ST. JOSEPH     CLEAR     61  60  97 S5        29.97R FOG
MOSBY          CLEAR     61  59  94 CALM      29.98S
WHITEMAN AFB   CLEAR     64  60  89 SW9       30.00R
CLINTON        CLEAR     66  63  88 SW7       30.01R HAZE
SEDALIA        CLEAR     68  60  75 SW13      30.01R
WARSAW         NOT AVBL
MARSHALL       CLEAR     68  63  83 SW7       30.00R
CHILLICOTHE      N/A     59  57  93 CALM      29.98R
MOBERLY        CLEAR     64  57  77 SW7       29.99R
KIRKSVILLE     PTCLDY    64  60  87 SW5       29.98R

$$

MOZ041-047>049-056>058-063>065-088>090-097-250400-
...EASTERN AND SOUTHERN MISSOURI...

CITY           SKY/WX    TMP DP  RH WIND       PRES   REMARKS
ST. LOUIS INTL PTCLDY    67  49  52 S5        30.00S
SPIRIT OF STL  PTCLDY    67  56  67 SW10      29.98S
COLUMBIA       PTCLDY    64  59  83 SW8       29.99R
JEFFERSON CITY CLEAR     67  59  75 CALM      29.99R
MEXICO         PTCLDY    64  64 100 SW7       29.98R
HANNIBAL       PTCLDY    63  57  82 S5        29.97S
ROLLA          CLEAR     63  58  83 SW12      30.01S
LEBANON        CLEAR     63  57  82 S8        30.06R
OSAGE BEACH    CLEAR     64  57  77 CALM      30.02S
SPRINGFIELD    CLEAR     61  57  87 S7        30.06R
BRANSON        CLEAR     63  59  88 S3        30.09S
NEVADA         CLEAR     63  59  88 S9        30.03S
JOPLIN         CLEAR     65  60  84 S9        30.05R
WEST PLAINS    PTCLDY    63  56  78 S5        30.09S

$$

IAZ060-094-KSZ022-034>040-054-083-096-NEZ052-066-093-250400-
...KANSAS...SOUTHEAST NEBRASKA AND IOWA...

CITY           SKY/WX    TMP DP  RH WIND       PRES   REMARKS
TOPEKA         CLEAR     63  60  90 CALM      29.97R
MANHATTAN      CLEAR     67  62  84 W6        29.97R
EMPORIA        CLEAR     62  61  96 S9        29.99S
CHANUTE        CLEAR     64  61  90 S9        30.02R
WICHITA        CLEAR     64  58  80 SW7       30.02R
OMAHA          CLEAR     57  55  93 CALM      29.99R
LINCOLN        CLEAR     57  51  80 NW3       30.01R
FALLS CITY     CLEAR     65  60  84 CALM      29.97R
LAMONI         PTCLDY    59  59 100 CALM      29.97R FOG
DES MOINES     FOG       59  58  96 S6        29.95S VSB 3/4

$$




USA.gov is the U.S. government's official web portal to all federal, state and local government web resources and services.